BEIDOU-3 M22 (C44)

Last updated on Sat Aug 15 2026 00:03:26 GMT+0000 (Coordinated Universal Time)

1 44793U 19078A 26226.07422237 -.00000061 00000+0 00000+0 0 9993 2 44793 53.8805 297.7882 0005180 47.6358 312.4807 1.86227072 45726
UTC large
Height (km)
Speed (km/s)
/
Latitude / Longitude
Inclination (degrees)
Orbital Period (minutes)
Azimuth
Elevation
Range (km)
Doppler Factor

Next 0 passes for location: London (51.5072 / 0.1276)

No passes found over London.
BEIDOU-3 M22 (C44)